Tracking 35334 objects as of 13-Sep-2026
HD Live streaming from Space Station
objects crossing your sky now

SL-12 DEB


SL-12 DEB is no longer on orbit


NORAD ID: 28689
Int'l Code: 2002-037J
Launch date: July 25, 2002
Source: Commonwealth of Independent States (former USSR) (CIS)
Launch site: TYURATAM MISSILE AND SPACE COMPLEX (TTMTR)
Decay date: 2005-06-03

Note: This is SATELLITE DEBRIS
Your satellite tracking list
Your tracking list is empty




NASA's NSSDC Master Catalog

Two Line Element Set (TLE):
1 28689U 02037J   05154.40924952  .21143741  90140+0  10860+0 0  9995
2 28689 063.4504 134.2080 0226373 143.5000 218.2006 15.60144341   212
Source of the keplerian elements: AFSPC